Location: Bagnara
(41.0500°N, 14.7833°E)
Time: 15:37:53
(UTC+00:00)

ATLAS 5 CENTAUR R/B - Pass Details

Date: 20 June 2021
Orbit: 255 x 12632 km, 20.1° (Epoch: 30 July)

Event Time Altitude Azimuth Distance (km) Brightness Sun altitude
Exits shadow 00:51:23 27° 201° (SSW) 3,824 4.4 -20.7°
Maximum altitude 00:56:59 33° 169° (S) 4,758 5.1 -20.2°
Drops below altitude 10° 01:37:10 10° 120° (ESE) 13,587 7.9 -16.2°
Sets 02:03:51 0° 115° (ESE) 17,065 8.6 -13.0°
